Location: Innsbruck
(47.2657°N, 11.3914°E)
Time: 02:20:05
(UTC+02:00)

Envisat - Pass Details

Date: 03 February 2023
Orbit: 763 x 765 km, 98.2° (Epoch: 28 March)

Event Time Altitude Azimuth Distance (km) Brightness Sun altitude
Rises 05:01:49 0° 9° (N) 3,245 6.4 -26.7°
Reaches altitude 10° 05:04:11 10° 4° (N) 2,314 5.5 -26.3°
Enters shadow 05:06:37 27° 350° (N) 1,446 4.3 -25.9°
